RYR7HH LIME-EPKT

Flight info

Callsign RYR7HH
Flight time 1h 19m
Altitude 34000
Route OSKOR DCT NESTI DCT TAGIP DCT MALUG/N0429F350 DCT NAVTI DCT UPLAV DCT OGDAS DCT BAVOK
Aircraft B738/M-SDE3FGILRWY/SB1

Departure

Time 2026-05-04 21:19
Airport Il Caravaggio International Airport (LIME)

Arrival

Time 2026-05-04 22:38
Airport Katowice Wojciech Korfanty International Airport (EPKT)
Time Latitude Longitude Altitude Speed Heading
2026-05-04 21:05 45.66634 9.69986 783 ft 0 kts 195°
2026-05-04 21:11 45.66643 9.69990 783 ft 4 kts 195°
2026-05-04 21:12 45.66670 9.70000 783 ft 4 kts 195°
2026-05-04 21:12 45.66696 9.70010 783 ft 4 kts 195°
2026-05-04 21:12 45.66719 9.70019 782 ft 4 kts 182°
2026-05-04 21:12 45.66739 9.70010 782 ft 4 kts 121°
2026-05-04 21:13 45.66747 9.69981 783 ft 1 kts 104°
2026-05-04 21:13 45.66748 9.69976 783 ft 0 kts 104°
2026-05-04 21:14 45.66747 9.69979 783 ft 2 kts 104°
2026-05-04 21:15 45.66736 9.70039 782 ft 11 kts 104°
2026-05-04 21:15 45.66712 9.70175 781 ft 17 kts 104°
2026-05-04 21:15 45.66677 9.70364 779 ft 22 kts 105°
2026-05-04 21:15 45.66633 9.70595 777 ft 26 kts 105°
2026-05-04 21:16 45.66583 9.70866 775 ft 30 kts 104°
2026-05-04 21:16 45.66519 9.71161 773 ft 31 kts 112°
2026-05-04 21:16 45.66458 9.71455 770 ft 30 kts 104°
2026-05-04 21:16 45.66462 9.71740 767 ft 29 kts 75°
2026-05-04 21:17 45.66446 9.72010 764 ft 27 kts 105°
2026-05-04 21:17 45.66401 9.72260 763 ft 25 kts 104°
2026-05-04 21:17 45.66389 9.72458 762 ft 15 kts 50°
2026-05-04 21:17 45.66451 9.72463 759 ft 9 kts 323°
2026-05-04 21:18 45.66474 9.72376 762 ft 13 kts 281°
2026-05-04 21:18 45.66556 9.71924 766 ft 83 kts 285°
2026-05-04 21:18 45.66764 9.70809 774 ft 146 kts 285°
2026-05-04 21:18 45.67056 9.69218 1138 ft 170 kts 285°
2026-05-04 21:19 45.67269 9.67599 2068 ft 170 kts 266°
2026-05-04 21:19 45.66774 9.65975 2498 ft 197 kts 228°
2026-05-04 21:19 45.65501 9.65016 2734 ft 224 kts 188°
2026-05-04 21:19 45.63937 9.65468 3049 ft 241 kts 149°
2026-05-04 21:20 45.62853 9.67269 3585 ft 246 kts 111°
2026-05-04 21:20 45.62677 9.69681 4242 ft 247 kts 86°
2026-05-04 21:20 45.62863 9.72213 4594 ft 264 kts 83°
2026-05-04 21:20 45.63100 9.74857 5271 ft 271 kts 84°
2026-05-04 21:21 45.63313 9.77535 6164 ft 272 kts 85°
2026-05-04 21:21 45.63497 9.80237 6958 ft 275 kts 86°
2026-05-04 21:21 45.63658 9.82984 7715 ft 280 kts 87°
2026-05-04 21:21 45.63804 9.85777 8484 ft 284 kts 88°
2026-05-04 21:22 45.63940 9.88608 9259 ft 288 kts 88°
2026-05-04 21:22 45.64069 9.91476 10028 ft 292 kts 89°
2026-05-04 21:22 45.64197 9.94424 10496 ft 307 kts 89°
2026-05-04 21:22 45.64331 9.97587 10669 ft 331 kts 89°
2026-05-04 21:23 45.64473 10.00936 11113 ft 343 kts 89°
2026-05-04 21:23 45.64616 10.04364 11788 ft 348 kts 89°
2026-05-04 21:23 45.64768 10.07832 12516 ft 352 kts 86°
2026-05-04 21:23 45.65280 10.11276 13288 ft 358 kts 73°
2026-05-04 21:24 45.66301 10.14550 14011 ft 364 kts 60°
2026-05-04 21:24 45.67225 10.16557 14493 ft 366 kts 56°
2026-05-04 21:24 45.68703 10.19550 15209 ft 370 kts 55°
2026-05-04 21:24 45.70216 10.22552 15942 ft 374 kts 54°
2026-05-04 21:25 45.72267 10.26605 16901 ft 379 kts 54°
2026-05-04 21:25 45.73292 10.28635 17382 ft 381 kts 54°
2026-05-04 21:25 45.74849 10.31731 18087 ft 385 kts 54°
2026-05-04 21:25 45.76419 10.34862 18737 ft 389 kts 54°
2026-05-04 21:26 45.78005 10.38035 19342 ft 394 kts 54°
2026-05-04 21:26 45.79604 10.41243 19941 ft 398 kts 54°
2026-05-04 21:26 45.81219 10.44486 20527 ft 402 kts 54°
2026-05-04 21:26 45.82848 10.47763 21106 ft 406 kts 55°
2026-05-04 21:27 45.84493 10.51076 21688 ft 410 kts 55°
2026-05-04 21:27 45.86153 10.54421 22251 ft 414 kts 55°
2026-05-04 21:27 45.87827 10.57800 22806 ft 417 kts 55°
2026-05-04 21:27 45.89514 10.61208 23372 ft 421 kts 55°
2026-05-04 21:28 45.91215 10.64647 23888 ft 424 kts 55°
2026-05-04 21:28 45.92928 10.68116 24363 ft 427 kts 55°
2026-05-04 21:28 45.94581 10.71671 24839 ft 429 kts 58°
2026-05-04 21:28 45.96147 10.75332 25298 ft 431 kts 60°
2026-05-04 21:29 45.97681 10.79054 25765 ft 434 kts 60°
2026-05-04 21:29 45.99211 10.82807 26187 ft 437 kts 60°
2026-05-04 21:29 46.00753 10.86584 26623 ft 439 kts 60°
2026-05-04 21:29 46.02312 10.90386 27056 ft 442 kts 60°
2026-05-04 21:30 46.03885 10.94201 27483 ft 445 kts 60°
2026-05-04 21:30 46.05469 10.98033 27877 ft 448 kts 60°
2026-05-04 21:30 46.07069 11.01900 28278 ft 450 kts 60°
2026-05-04 21:30 46.08656 11.05734 28651 ft 453 kts 60°
2026-05-04 21:31 46.11899 11.13583 29398 ft 459 kts 60°
2026-05-04 21:31 46.13536 11.17553 29761 ft 462 kts 60°
2026-05-04 21:31 46.15175 11.21533 30217 ft 462 kts 60°
2026-05-04 21:32 46.16807 11.25503 30690 ft 459 kts 60°
2026-05-04 21:32 46.18434 11.29468 31137 ft 458 kts 60°
2026-05-04 21:32 46.20056 11.33424 31505 ft 458 kts 60°
2026-05-04 21:32 46.21676 11.37385 31890 ft 458 kts 60°
2026-05-04 21:33 46.23295 11.41347 32290 ft 458 kts 59°
2026-05-04 21:33 46.24910 11.45305 32619 ft 457 kts 59°
2026-05-04 21:33 46.26518 11.49252 33025 ft 456 kts 59°
2026-05-04 21:33 46.28126 11.53204 33362 ft 456 kts 59°
2026-05-04 21:34 46.29731 11.57154 33731 ft 456 kts 59°
2026-05-04 21:34 46.31333 11.61102 34078 ft 455 kts 59°
2026-05-04 21:34 46.32944 11.65079 34057 ft 459 kts 59°
2026-05-04 21:35 46.36166 11.73049 34070 ft 456 kts 60°
2026-05-04 21:35 46.39343 11.80931 34076 ft 453 kts 60°
2026-05-04 21:36 46.42518 11.88831 34068 ft 454 kts 60°
2026-05-04 21:36 46.45690 11.96747 34067 ft 454 kts 60°
2026-05-04 21:37 46.48860 12.04681 34095 ft 455 kts 60°
2026-05-04 21:37 46.52030 12.12636 34110 ft 455 kts 60°
2026-05-04 21:38 46.55196 12.20606 34128 ft 456 kts 60°
2026-05-04 21:38 46.58357 12.28585 34145 ft 456 kts 60°
2026-05-04 21:39 46.61509 12.36566 34148 ft 455 kts 60°
2026-05-04 21:39 46.64630 12.44493 34130 ft 454 kts 60°
2026-05-04 21:40 46.67785 12.52526 34116 ft 453 kts 60°
2026-05-04 21:40 46.70999 12.60405 34084 ft 452 kts 53°
2026-05-04 21:40 46.72998 12.63949 34199 ft 453 kts 48°
2026-05-04 21:41 46.75092 12.67372 34549 ft 451 kts 47°
2026-05-04 21:41 46.77191 12.70745 34959 ft 448 kts 47°
2026-05-04 21:41 46.79266 12.74075 35046 ft 452 kts 47°
2026-05-04 21:42 46.83507 12.80952 35054 ft 451 kts 47°
2026-05-04 21:42 46.87635 12.87739 35046 ft 444 kts 48°
2026-05-04 21:43 46.91725 12.94508 35063 ft 445 kts 48°
2026-05-04 21:43 46.95816 13.01302 35052 ft 445 kts 48°
2026-05-04 21:44 46.99906 13.08109 35057 ft 445 kts 48°
2026-05-04 21:44 47.04003 13.14942 35044 ft 446 kts 48°
2026-05-04 21:45 47.08074 13.21751 35042 ft 447 kts 48°
2026-05-04 21:45 47.12176 13.28627 35032 ft 448 kts 49°
2026-05-04 21:46 47.16279 13.35523 35019 ft 449 kts 49°
2026-05-04 21:46 47.20381 13.42435 35028 ft 449 kts 49°
2026-05-04 21:47 47.24480 13.49359 35010 ft 449 kts 49°
2026-05-04 21:47 47.28572 13.56291 35003 ft 448 kts 49°
2026-05-04 21:48 47.32659 13.63229 35003 ft 448 kts 49°
2026-05-04 21:48 47.36735 13.70168 35025 ft 448 kts 49°
2026-05-04 21:49 47.40811 13.77124 35019 ft 448 kts 49°
2026-05-04 21:49 47.44710 13.83797 35007 ft 447 kts 49°
2026-05-04 21:50 47.48772 13.90765 34996 ft 447 kts 49°
2026-05-04 21:50 47.52823 13.97732 34987 ft 447 kts 49°
2026-05-04 21:51 47.56868 14.04707 34996 ft 446 kts 49°
2026-05-04 21:51 47.60899 14.11677 34993 ft 445 kts 49°
2026-05-04 21:52 47.64925 14.18655 34987 ft 445 kts 49°
2026-05-04 21:52 47.68945 14.25641 34967 ft 444 kts 49°
2026-05-04 21:53 47.72950 14.32617 34973 ft 444 kts 49°
2026-05-04 21:53 47.76951 14.39607 34961 ft 444 kts 49°
2026-05-04 21:54 47.80947 14.46605 34964 ft 444 kts 49°
2026-05-04 21:54 47.84939 14.53614 34968 ft 444 kts 50°
2026-05-04 21:55 47.88923 14.60629 34954 ft 444 kts 50°
2026-05-04 21:55 47.92880 14.67613 34946 ft 444 kts 50°
2026-05-04 21:56 47.96858 14.74653 34958 ft 444 kts 50°
2026-05-04 21:56 48.00829 14.81700 34950 ft 444 kts 50°
2026-05-04 21:57 48.04797 14.88759 34946 ft 444 kts 50°
2026-05-04 21:57 48.08760 14.95827 34941 ft 444 kts 50°
2026-05-04 21:58 48.12720 15.02909 34937 ft 444 kts 50°
2026-05-04 21:58 48.16674 15.10000 34941 ft 444 kts 50°
2026-05-04 21:59 48.20629 15.17110 34942 ft 444 kts 50°
2026-05-04 21:59 48.24581 15.24235 34945 ft 444 kts 50°
2026-05-04 22:00 48.28532 15.31377 34939 ft 445 kts 50°
2026-05-04 22:00 48.32484 15.38538 34932 ft 445 kts 50°
2026-05-04 22:01 48.36434 15.45717 34935 ft 446 kts 50°
2026-05-04 22:01 48.40384 15.52915 34929 ft 446 kts 50°
2026-05-04 22:02 48.44326 15.60117 34931 ft 446 kts 50°
2026-05-04 22:02 48.48261 15.67325 34930 ft 445 kts 50°
2026-05-04 22:03 48.52188 15.74540 34929 ft 444 kts 50°
2026-05-04 22:03 48.56096 15.81737 34921 ft 443 kts 50°
2026-05-04 22:04 48.59987 15.88923 34929 ft 442 kts 50°
2026-05-04 22:04 48.63868 15.96111 34928 ft 441 kts 50°
2026-05-04 22:05 48.67739 16.03298 34930 ft 442 kts 50°
2026-05-04 22:05 48.71674 16.10626 34944 ft 455 kts 50°
2026-05-04 22:06 48.75712 16.18163 34939 ft 466 kts 50°
2026-05-04 22:06 48.79563 16.26212 34934 ft 477 kts 56°
2026-05-04 22:07 48.83130 16.34702 34928 ft 477 kts 57°
2026-05-04 22:07 48.86675 16.43213 34935 ft 476 kts 57°
2026-05-04 22:08 48.90242 16.51683 34941 ft 475 kts 56°
2026-05-04 22:08 48.93815 16.60133 34944 ft 475 kts 56°
2026-05-04 22:09 48.96779 16.67156 34949 ft 474 kts 56°
2026-05-04 22:09 49.00333 16.75604 34943 ft 473 kts 56°
2026-05-04 22:10 49.03872 16.84049 34942 ft 472 kts 56°
2026-05-04 22:10 49.07401 16.92495 34947 ft 472 kts 56°
2026-05-04 22:11 49.10915 17.00934 34953 ft 471 kts 56°
2026-05-04 22:11 49.14420 17.09377 34957 ft 470 kts 56°
2026-05-04 22:12 49.17914 17.17822 34967 ft 470 kts 56°
2026-05-04 22:12 49.21927 17.27555 34575 ft 458 kts 56°
2026-05-04 22:12 49.23071 17.30335 34187 ft 457 kts 56°
2026-05-04 22:13 49.24768 17.34464 33378 ft 460 kts 56°
2026-05-04 22:13 49.26477 17.38629 32427 ft 465 kts 56°
2026-05-04 22:13 49.28205 17.42845 31499 ft 469 kts 57°
2026-05-04 22:13 49.29943 17.47094 30614 ft 473 kts 57°
2026-05-04 22:14 49.31807 17.51250 29668 ft 474 kts 50°
2026-05-04 22:14 49.34026 17.54980 28619 ft 474 kts 41°
2026-05-04 22:14 49.36587 17.58171 27632 ft 474 kts 36°
2026-05-04 22:14 49.39217 17.61192 26884 ft 470 kts 36°
2026-05-04 22:15 49.41827 17.64165 26229 ft 464 kts 36°
2026-05-04 22:15 49.44398 17.67117 25604 ft 459 kts 36°
2026-05-04 22:15 49.46924 17.70051 25034 ft 453 kts 36°
2026-05-04 22:15 49.49419 17.72978 24490 ft 447 kts 36°
2026-05-04 22:16 49.51868 17.75869 23949 ft 442 kts 37°
2026-05-04 22:16 49.54293 17.78740 23393 ft 437 kts 37°
2026-05-04 22:16 49.56687 17.81579 22770 ft 432 kts 37°
2026-05-04 22:16 49.59026 17.84356 22154 ft 428 kts 37°
2026-05-04 22:17 49.61408 17.87186 21564 ft 424 kts 37°
2026-05-04 22:17 49.63736 17.89954 20968 ft 422 kts 37°
2026-05-04 22:17 49.66027 17.92681 20402 ft 421 kts 37°
2026-05-04 22:17 49.68338 17.95435 19836 ft 419 kts 37°
2026-05-04 22:18 49.70698 17.98041 19269 ft 416 kts 30°
2026-05-04 22:18 49.73265 18.00071 18741 ft 413 kts 24°
2026-05-04 22:18 49.75875 18.01919 18190 ft 411 kts 23°
2026-05-04 22:18 49.78465 18.03732 17727 ft 405 kts 23°
2026-05-04 22:19 49.81002 18.05523 17367 ft 396 kts 24°
2026-05-04 22:19 49.83475 18.07292 17036 ft 388 kts 24°
2026-05-04 22:19 49.85897 18.09041 16717 ft 380 kts 24°
2026-05-04 22:19 49.88268 18.10762 16402 ft 373 kts 24°
2026-05-04 22:20 49.90606 18.12464 16095 ft 369 kts 24°
2026-05-04 22:20 49.92916 18.14148 15796 ft 366 kts 24°
2026-05-04 22:20 49.95211 18.15823 15501 ft 363 kts 24°
2026-05-04 22:20 49.97493 18.17491 15198 ft 361 kts 25°
2026-05-04 22:21 49.99581 18.19634 14883 ft 361 kts 42°
2026-05-04 22:21 50.01208 18.22570 14612 ft 358 kts 59°
2026-05-04 22:21 50.02354 18.26000 14396 ft 359 kts 65°
2026-05-04 22:21 50.03394 18.29516 14120 ft 357 kts 66°
2026-05-04 22:22 50.04408 18.33037 13865 ft 358 kts 67°
2026-05-04 22:22 50.05428 18.36585 13589 ft 360 kts 66°
2026-05-04 22:22 50.06454 18.40128 13294 ft 358 kts 66°
2026-05-04 22:22 50.07480 18.43645 12977 ft 356 kts 66°
2026-05-04 22:23 50.08507 18.47147 12636 ft 355 kts 66°
2026-05-04 22:23 50.09536 18.50645 12305 ft 354 kts 66°
2026-05-04 22:23 50.10559 18.54121 11979 ft 353 kts 66°
2026-05-04 22:23 50.11581 18.57590 11656 ft 351 kts 66°
2026-05-04 22:24 50.12597 18.61046 11336 ft 350 kts 66°
2026-05-04 22:24 50.13609 18.64488 11028 ft 349 kts 66°
2026-05-04 22:24 50.14617 18.67921 10700 ft 348 kts 66°
2026-05-04 22:24 50.15618 18.71338 10382 ft 345 kts 66°
2026-05-04 22:25 50.16608 18.74718 10069 ft 340 kts 66°
2026-05-04 22:25 50.17582 18.78051 9759 ft 335 kts 66°
2026-05-04 22:25 50.18544 18.81346 9411 ft 333 kts 66°
2026-05-04 22:25 50.19502 18.84632 9072 ft 332 kts 66°
2026-05-04 22:26 50.20452 18.87897 8730 ft 328 kts 66°
2026-05-04 22:26 50.21387 18.91112 8409 ft 324 kts 66°
2026-05-04 22:26 50.22312 18.94298 8079 ft 320 kts 66°
2026-05-04 22:26 50.23224 18.97445 7754 ft 317 kts 66°
2026-05-04 22:27 50.24127 19.00563 7451 ft 312 kts 66°
2026-05-04 22:27 50.25009 19.03613 7177 ft 304 kts 66°
2026-05-04 22:27 50.25869 19.06589 6908 ft 297 kts 66°
2026-05-04 22:27 50.26709 19.09500 6637 ft 292 kts 66°
2026-05-04 22:28 50.27537 19.12377 6371 ft 289 kts 66°
2026-05-04 22:28 50.28361 19.15240 6098 ft 289 kts 66°
2026-05-04 22:28 50.29185 19.18107 5827 ft 289 kts 67°
2026-05-04 22:28 50.29995 19.20930 5548 ft 289 kts 67°
2026-05-04 22:29 50.30817 19.23799 5274 ft 289 kts 67°
2026-05-04 22:29 50.31637 19.26662 5059 ft 288 kts 67°
2026-05-04 22:29 50.32456 19.29525 5005 ft 289 kts 67°
2026-05-04 22:29 50.33276 19.32395 4996 ft 288 kts 67°
2026-05-04 22:30 50.34085 19.35232 4967 ft 282 kts 67°
2026-05-04 22:30 50.34875 19.37998 4754 ft 276 kts 67°
2026-05-04 22:30 50.35640 19.40683 4596 ft 266 kts 67°
2026-05-04 22:30 50.36392 19.43328 4278 ft 265 kts 68°
2026-05-04 22:31 50.37140 19.45964 4043 ft 265 kts 67°
2026-05-04 22:31 50.37934 19.48568 3992 ft 266 kts 57°
2026-05-04 22:31 50.39272 19.50494 3993 ft 259 kts 24°
2026-05-04 22:31 50.40937 19.51214 3985 ft 242 kts
2026-05-04 22:32 50.42574 19.51312 3973 ft 231 kts 356°
2026-05-04 22:32 50.44161 19.51293 3967 ft 225 kts 350°
2026-05-04 22:32 50.45604 19.50544 4001 ft 218 kts 322°
2026-05-04 22:32 50.46655 19.48910 3971 ft 211 kts 289°
2026-05-04 22:33 50.47028 19.46725 4004 ft 208 kts 278°
2026-05-04 22:33 50.47279 19.44498 3990 ft 207 kts 274°
2026-05-04 22:33 50.47471 19.42263 3997 ft 206 kts 271°
2026-05-04 22:33 50.47563 19.40016 3982 ft 206 kts 268°
2026-05-04 22:34 50.47584 19.37777 3984 ft 205 kts 266°
2026-05-04 22:34 50.47586 19.35593 3989 ft 192 kts 266°
2026-05-04 22:34 50.47585 19.33570 3870 ft 180 kts 265°
2026-05-04 22:34 50.47583 19.31652 3660 ft 173 kts 266°
2026-05-04 22:35 50.47582 19.29808 3449 ft 165 kts 265°
2026-05-04 22:35 50.47582 19.28071 3233 ft 156 kts 265°
2026-05-04 22:35 50.47582 19.26398 3028 ft 150 kts 265°
2026-05-04 22:35 50.47583 19.24830 2844 ft 141 kts 264°
2026-05-04 22:36 50.47583 19.23318 2662 ft 137 kts 264°
2026-05-04 22:36 50.47583 19.21822 2489 ft 138 kts 264°
2026-05-04 22:36 50.47584 19.20329 2301 ft 135 kts 264°
2026-05-04 22:36 50.47585 19.18874 2123 ft 132 kts 264°
2026-05-04 22:37 50.47587 19.17417 1953 ft 137 kts 265°
2026-05-04 22:37 50.47586 19.15891 1799 ft 142 kts 265°
2026-05-04 22:37 50.47584 19.14350 1583 ft 140 kts 266°
2026-05-04 22:37 50.47590 19.12821 1376 ft 143 kts 266°
2026-05-04 22:38 50.47594 19.11253 1228 ft 146 kts 269°
2026-05-04 22:38 50.47598 19.09657 1058 ft 146 kts 269°
2026-05-04 22:38 50.47601 19.08189 1015 ft 115 kts 269°
2026-05-04 22:38 50.47602 19.07316 1008 ft 26 kts 267°
2026-05-04 22:39 50.47555 19.07037 1009 ft 26 kts 244°
2026-05-04 22:39 50.47469 19.06797 1007 ft 23 kts 240°
2026-05-04 22:39 50.47424 19.06675 1007 ft 12 kts 233°
2026-05-04 22:39 50.47352 19.06625 1005 ft 12 kts 181°
2026-05-04 22:40 50.47274 19.06628 1005 ft 10 kts 166°
2026-05-04 22:40 50.47236 19.06712 1008 ft 10 kts 95°
2026-05-04 22:40 50.47235 19.06820 1012 ft 10 kts 90°
2026-05-04 22:40 50.47235 19.06925 1010 ft 10 kts 91°
2026-05-04 22:41 50.47234 19.07027 1012 ft 9 kts 90°
2026-05-04 22:41 50.47234 19.07127 1013 ft 9 kts 90°
2026-05-04 22:41 50.47235 19.07195 1010 ft 3 kts 89°
2026-05-04 22:41 50.47234 19.07204 1015 ft 0 kts 96°
2026-05-04 22:42 50.47227 19.07210 1013 ft 2 kts 162°
2026-05-04 22:42 50.47204 19.07211 1011 ft 3 kts 180°
2026-05-04 22:42 50.47184 19.07211 1011 ft 2 kts 179°
2026-05-04 22:42 50.47180 19.07212 1010 ft 0 kts 179°